GW4602 Weather Reports


time (UTC)temp
C
wind
direction
speed
KPH
gust
KPH
rain 1hr
cm
rain 24hr
cm
rain mn
cm
humidity
%
barometer
mb
20260504060144 5 275 0.0 0.0 0.00 0.00 0.00 83 1019.9
20260504050611 5 275 0.0 0.0 0.00 0.00 0.00 80 1019.9
20260504050109 5 275 0.0 0.0 0.00 0.00 0.00 81 1019.8
20260504045606 5 275 0.0 0.0 0.00 0.00 0.00 79 1019.9
20260504045101 5 325 0.0 0.0 0.00 0.00 0.00 80 1019.8
20260504044559 5 325 0.0 0.0 0.00 0.00 0.00 79 1019.7
20260504044055 5 312 0.0 0.0 0.00 0.00 0.00 80 1019.5
20260504043553 5 312 0.0 0.0 0.00 0.00 0.00 78 1019.7
20260504043049 5 257 0.0 0.0 0.00 0.00 0.00 77 1019.7
20260504042547 5 274 0.0 0.0 0.00 0.00 0.00 78 1019.6
20260504042043 5 46 0.0 0.0 0.00 0.00 0.00 78 1019.5
20260504041539 5 14 0.0 0.0 0.00 0.00 0.00 77 1019.5
20260504041035 5 344 0.0 0.0 0.00 0.00 0.00 80 1019.6
20260504040533 5 346 0.0 0.0 0.00 0.00 0.00 80 1019.5
20260504040029 5 346 0.0 0.0 0.00 0.00 0.00 81 1019.5
20260504035526 5 346 0.0 0.0 0.00 0.00 0.00 81 1019.5
20260504035022 5 300 0.0 0.0 0.00 0.00 0.00 79 1019.5
20260504034520 5 301 0.0 0.0 0.00 0.00 0.00 79 1019.4
20260504034017 5 303 0.0 0.0 0.00 0.00 0.00 79 1019.6
20260504033515 4 100 0.0 0.0 0.00 0.00 0.00 82 1019.3
20260504033012 4 100 0.0 0.0 0.00 0.00 0.00 82 1019.1
20260504032509 4 100 0.0 0.0 0.00 0.00 0.00 83 1019.5
20260504032005 4 100 0.0 0.0 0.00 0.00 0.00 82 1019.0
20260504031502 4 287 0.0 0.0 0.00 0.00 0.00 79 1019.3
20260504030959 4 287 0.0 0.0 0.00 0.00 0.00 78 1019.4
20260504030456 4 293 0.0 0.0 0.00 0.00 0.00 78 1019.3
20260504025952 4 293 0.0 0.0 0.00 0.00 0.00 76 1019.2
20260504025449 5 293 0.0 0.0 0.00 0.00 0.00 76 1019.5
20260504024946 5 293 0.0 0.0 0.00 0.00 0.00 75 1019.1
20260504024443 5 222 0.0 0.0 0.00 0.00 0.00 74 1019.4
20260504023940 5 192 0.0 0.0 0.00 0.00 0.00 75 1019.2
20260504023436 5 192 0.0 0.0 0.00 0.00 0.00 73 1019.4
20260504022932 5 192 0.0 0.0 0.00 0.00 0.00 73 1019.4
20260504022429 5 240 0.0 0.0 0.00 0.00 0.00 73 1019.4
20260504021925 5 228 0.0 0.0 0.00 0.00 0.00 73 1019.1
20260504021422 5 166 0.0 0.0 0.00 0.00 0.00 72 1019.5
20260504020921 5 105 0.0 0.0 0.00 0.00 0.00 74 1019.3
20260504020417 5 105 0.0 0.0 0.00 0.00 0.00 73 1019.2
20260504015913 5 104 0.0 0.0 0.00 0.00 0.00 72 1019.3
20260504015409 5 104 0.0 0.0 0.00 0.00 0.00 70 1019.1
20260504014905 6 106 0.0 0.0 0.00 0.00 0.00 69 1019.1
20260504014401 6 106 0.0 0.0 0.00 0.00 0.00 70 1018.7
20260504013858 7 106 0.0 0.0 0.00 0.00 0.00 68 1018.9
20260504013356 7 106 0.0 0.0 0.00 0.00 0.00 65 1018.9
20260504012847 7 105 0.0 0.0 0.00 0.00 0.00 63 1018.9
20260504012345 7 105 0.0 1.6 0.00 0.00 0.00 63 1018.8
20260504011843 7 232 0.0 0.0 0.00 0.00 0.00 59 1018.8
20260504011339 7 272 0.0 1.6 0.00 0.00 0.00 62 1018.5
20260504010835 7 236 0.0 1.6 0.00 0.00 0.00 63 1018.5
20260504010331 7 221 0.0 0.0 0.00 0.00 0.00 63 1018.6
20260504005828 7 199 0.0 0.0 0.00 0.00 0.00 61 1018.6
20260504005324 8 240 0.0 0.0 0.00 0.00 0.00 58 1018.4
20260504004822 8 190 0.0 0.0 0.00 0.00 0.00 58 1018.4
20260504004320 8 195 0.0 0.0 0.00 0.00 0.00 55 1018.4
20260504003815 9 226 0.0 0.0 0.00 0.00 0.00 54 1018.2
20260504003313 10 218 0.0 0.0 0.00 0.00 0.00 52 1018.2
20260504002809 10 201 0.0 0.0 0.00 0.00 0.00 51 1018.2
20260504002306 11 174 0.0 1.6 0.00 0.00 0.00 48 1018.3
20260504001803 11 263 0.0 0.0 0.00 0.00 0.00 45 1018.0
20260504001300 11 263 0.0 0.0 0.00 0.00 0.00 41 1018.0
20260504000757 12 268 0.0 0.0 0.00 0.00 0.00 38 1018.1
20260504000254 12 268 0.0 0.0 0.00 0.00 0.00 39 1017.9
20260503235752 13 268 0.0 1.6 0.00 0.00 0.00 37 1018.1
20260503235249 13 295 0.0 0.0 0.00 0.00 0.00 37 1018.0
20260503234746 13 288 0.0 6.4 0.00 0.00 0.00 37 1018.2
20260503234245 13 286 0.0 1.6 0.00 0.00 0.00 35 1018.0
20260503233741 13 296 0.0 1.6 0.00 0.00 0.00 37 1018.1
20260503233237 13 277 1.6 3.2 0.00 0.00 0.00 36 1017.9
20260503232734 14 246 0.0 3.2 0.00 0.00 0.00 35 1018.1
20260503232231 14 272 0.0 3.2 0.00 0.00 0.00 37 1018.0
20260503231730 14 302 6.4 9.7 0.00 0.00 0.00 32 1018.1
20260503231227 15 336 3.2 4.8 0.00 0.00 0.00 34 1018.3
20260503230723 15 320 3.2 11.3 0.00 0.00 0.00 32 1018.3
20260503230220 15 258 0.0 4.8 0.00 0.00 0.00 31 1018.2
20260503225717 15 262 0.0 3.2 0.00 0.00 0.00 35 1018.3
20260503225212 15 273 3.2 6.4 0.00 0.00 0.00 32 1018.1
20260503224709 15 300 3.2 4.8 0.00 0.00 0.00 30 1018.4
20260503224207 15 275 4.8 4.8 0.00 0.00 0.00 33 1018.3
20260503223704 15 297 1.6 4.8 0.00 0.00 0.00 34 1018.3
20260503223202 15 240 3.2 4.8 0.00 0.00 0.00 34 1018.1
20260503222658 15 232 8.0 11.3 0.00 0.00 0.00 32 1018.3
20260503222156 15 253 3.2 4.8 0.00 0.00 0.00 34 1018.2
20260503221654 15 301 1.6 3.2 0.00 0.00 0.00 31 1018.2
20260503221151 15 300 0.0 4.8 0.00 0.00 0.00 33 1018.0
20260503220647 15 297 1.6 6.4 0.00 0.00 0.00 34 1018.1
20260503220144 15 269 0.0 3.2 0.00 0.00 0.00 35 1018.1
20260503215641 15 298 3.2 4.8 0.00 0.00 0.00 33 1018.2
20260503215137 15 288 4.8 6.4 0.00 0.00 0.00 30 1018.2
20260503214637 15 304 4.8 9.7 0.00 0.00 0.00 30 1018.3
20260503214132 16 243 3.2 3.2 0.00 0.00 0.00 33 1018.4
20260503213631 16 263 0.0 3.2 0.00 0.00 0.00 34 1018.3
20260503213127 16 240 1.6 4.8 0.00 0.00 0.00 33 1018.5
20260503212625 16 288 3.2 6.4 0.00 0.00 0.00 30 1018.3
20260503212122 16 257 1.6 3.2 0.00 0.00 0.00 32 1018.3
20260503211620 16 221 3.2 4.8 0.00 0.00 0.00 33 1018.4
20260503211115 16 299 3.2 4.8 0.00 0.00 0.00 30 1018.5
20260503210612 17 324 6.4 11.3 0.00 0.00 0.00 26 1018.6
20260503210109 17 76 1.6 4.8 0.00 0.00 0.00 28 1018.6
20260503205604 16 295 4.8 6.4 0.00 0.00 0.00 28 1018.4
20260503205101 16 229 9.7 11.3 0.00 0.00 0.00 33 1018.6
20260503204558 16 73 3.2 3.2 0.00 0.00 0.00 26 1018.6
20260503204055 16 199 6.4 11.3 0.00 0.00 0.00 32 1018.8
20260503203552 16 234 3.2 6.4 0.00 0.00 0.00 34 1018.9
20260503203049 15 317 4.8 6.4 0.00 0.00 0.00 25 1018.8
20260503202547 16 313 9.7 11.3 0.00 0.00 0.00 28 1019.0
20260503202044 16 229 3.2 6.4 0.00 0.00 0.00 29 1018.9
20260503201543 16 230 3.2 9.7 0.00 0.00 0.00 28 1019.2
20260503201039 16 214 1.6 4.8 0.00 0.00 0.00 34 1019.5
20260503200530 16 246 6.4 9.7 0.00 0.00 0.00 35 1019.3
20260503200027 16 227 11.3 14.5 0.00 0.00 0.00 35 1019.4
20260503195524 16 255 1.6 6.4 0.00 0.00 0.00 39 1019.5
20260503195021 16 250 4.8 11.3 0.00 0.00 0.00 34 1019.5
20260503194519 16 224 4.8 9.7 0.00 0.00 0.00 33 1019.7
20260503194018 16 318 1.6 3.2 0.00 0.00 0.00 33 1019.8
20260503193515 16 295 3.2 9.7 0.00 0.00 0.00 35 1020.2
20260503193010 16 277 3.2 14.5 0.00 0.00 0.00 34 1020.1
20260503192507 15 285 4.8 11.3 0.00 0.00 0.00 34 1020.2
20260503192003 15 203 9.7 11.3 0.00 0.00 0.00 36 1020.3
20260503191500 15 254 4.8 11.3 0.00 0.00 0.00 35 1020.2
20260503190956 16 203 1.6 12.9 0.00 0.00 0.00 33 1020.4
20260503190453 15 285 1.6 4.8 0.00 0.00 0.00 40 1020.6
20260503185950 15 179 1.6 12.9 0.00 0.00 0.00 35 1020.7
20260503185446 15 265 4.8 6.4 0.00 0.00 0.00 37 1020.6
20260503184946 14 242 0.0 1.6 0.00 0.00 0.00 34 1020.6
20260503184442 15 313 9.7 11.3 0.00 0.00 0.00 34 1020.6
20260503183938 15 317 1.6 4.8 0.00 0.00 0.00 37 1020.7
20260503183435 15 202 3.2 14.5 0.00 0.00 0.00 34 1020.6
20260503182932 16 203 4.8 9.7 0.00 0.00 0.00 32 1020.8
20260503182431 15 312 1.6 4.8 0.00 0.00 0.00 43 1020.8
20260503181928 15 77 8.0 11.3 0.00 0.00 0.00 33 1020.8
20260503181425 15 304 1.6 4.8 0.00 0.00 0.00 38 1021.0
20260503180921 14 325 3.2 4.8 0.00 0.00 0.00 34 1021.0
20260503180420 14 222 3.2 4.8 0.00 0.00 0.00 37 1021.2
20260503175916 15 223 12.9 12.9 0.00 0.00 0.00 37 1021.1
20260503175414 15 276 3.2 9.7 0.00 0.00 0.00 35 1021.0
20260503174909 14 279 1.6 4.8 0.00 0.00 0.00 38 1021.3
20260503174408 13 342 8.0 11.3 0.00 0.00 0.00 32 1021.3
20260503173903 13 180 1.6 9.7 0.00 0.00 0.00 40 1021.5
20260503173359 13 20 4.8 11.3 0.00 0.00 0.00 36 1021.4
20260503172856 13 229 4.8 6.4 0.00 0.00 0.00 38 1021.6
20260503172354 13 218 4.8 16.1 0.00 0.00 0.00 42 1021.7
20260503171849 13 208 12.9 16.1 0.00 0.00 0.00 33 1021.5
20260503171346 14 215 9.7 12.9 0.00 0.00 0.00 41 1021.6
20260503170844 13 78 0.0 6.4 0.00 0.00 0.00 41 1021.7
20260503170340 13 307 1.6 4.8 0.00 0.00 0.00 44 1021.7
20260503150732 10 286 6.4 11.3 0.00 0.00 0.00 47 1023.0
20260503150228 10 325 1.6 6.4 0.00 0.00 0.00 52 1023.1
20260503140153 7 82 1.6 9.7 0.00 0.00 0.00 52 1023.2
20260503131122 6 216 3.2 9.7 0.00 0.00 0.00 70 1023.0
20260503130620 6 288 1.6 6.4 0.00 0.00 0.00 74 1023.0
20260503130117 6 204 1.6 6.4 0.00 0.00 0.00 71 1023.0
20260503110510 -1 153 0.0 0.0 0.00 0.00 0.00 99 1021.9
20260503090356 -1 105 0.0 0.0 0.00 0.00 0.00 97 1020.7
20260503081323 0 135 0.0 0.0 0.00 0.00 0.00 96 1020.2
20260503080819 0 244 0.0 0.0 0.00 0.00 0.00 96 1019.9
20260503080316 0 221 0.0 0.0 0.00 0.00 0.00 96 1019.8
20260503072747 0 180 0.0 0.0 0.00 0.00 0.00 95 1019.6
20260503072244 0 127 0.0 0.0 0.00 0.00 0.00 95 1019.6
20260503071740 0 231 0.0 0.0 0.00 0.00 0.00 95 1019.6
20260503071237 0 110 0.0 0.0 0.00 0.00 0.00 94 1019.7
20260503070733 0 176 0.0 0.0 0.00 0.00 0.00 94 1019.6
20260503070232 1 150 0.0 0.0 0.00 0.00 0.00 93 1019.5